Regional Weather Roundup
Issued by NWS

Home | Current Version | Previous Version | Text Only | Print | Product List | Glossary On
Versions: 1 2 3 4 5 6 7 8 9 10 11 12 13 14 15 16 17 18 19 20 21 22 23 24 25 26 27 28 29 30 31 32 33 34 35 36 37 38 39 40 41 42 43 44 45 46 47 48 49 50
000
ASUS44 KFWD 060110
RWRTX
NORTH TEXAS HOURLY WEATHER ROUNDUP
NATIONAL WEATHER SERVICE FORT WORTH TX
800 PM CDT SUN JUL 05 2015

NOTE: "FAIR" INDICATES FEW OR NO CLOUDS BELOW 12,000 FEET WITH NO
SIGNIFICANT WEATHER AND/OR OBSTRUCTIONS TO VISIBILITY.

TXZ118-119-060200-
DALLAS/FORT WORTH METROPLEX

CITY           SKY/WX    TMP DP  RH WIND       PRES   REMARKS
DFW AIRPORT    PTCLDY    89  68  49 S15       29.92R HX  93
DALLAS LOVE    PTCLDY    90  69  50 S17       29.93R HX  94
FTW MEACHAM    PTCLDY    90  70  51 S14       29.91R HX  95
DAL-EXECUTIVE  CLEAR     88  69  53 S10G21    29.93R HX  92
FTW-ALLIANCE   PTCLDY    88  69  53 S14G21    29.91S HX  92
FTW-NAS-JRB    CLEAR     90  70  51 S18       29.92R HX  95
ARLINGTON      CLEAR    N/A N/A N/A S18       29.93R
GRAND PRAIRIE  CLEAR     90  72  55 SE10G17   29.94R HX  96
ADDISON        PTCLDY    90  68  48 SE15G22   29.95R HX  93
MESQUITE       PTCLDY    88  70  55 SE10G20   29.95R HX  92
LANCASTER      PTCLDY    87  68  52 S9        29.95R HX  91
$$

TXZ091>094-102>105-117-120-121-131>134-060200-
NORTH CENTRAL TEXAS

CITY           SKY/WX    TMP DP  RH WIND       PRES   REMARKS
SHRMAN/DENISON CLEAR     88  71  56 S9        29.95R HX  93
GAINESVILLE    CLEAR     87  68  54 SE12      29.94R HX  90
BRIDGEPORT     CLEAR     88  69  53 S7        29.92S HX  92
DECATUR        CLEAR     87  67  50 S10       29.93R HX  90
DENTON         CLEAR     87  70  56 S10       29.92R HX  92
MCKINNEY       CLEAR     87  69  54 SE12      29.94R HX  91
GREENVILLE     CLEAR     86  70  58 S8        29.97R HX  90
ROCKWALL       CLEAR     87  71  58 S9        29.94R HX  93
TERRELL        PTCLDY    87  71  58 SE7       29.96R HX  93
WAXAHACHIE     CLEAR     86  73  64 S8        29.95R HX  92
CLEBURNE         N/A     88  73  62 SE13      29.95R HX  96
GRANBURY         N/A     90  70  50 SE10      29.92S HX  95
$$

TXZ083>090-098>101-113>116-127>130-139>142-154-155-060200-
WESTERN NORTH TEXAS

CITY           SKY/WX    TMP DP  RH WIND       PRES   REMARKS
WICHITA FALLS  CLEAR     88  68  51 S15       29.87R HX  91
WF-KICKAPOO    CLEAR     91  66  43 SE15      29.89R HX  93
VERNON         PTCLDY    94  59  30 S16       29.87R HX  93
ABILENE        CLEAR     89  62  40 SE18G25   29.92S
ABILENE-DYESS  CLEAR     88  65  47 S15G22    29.90S HX  90
BRECKENRIDGE   CLEAR     90  61  38 S9        29.90S HX  90
GRAHAM         CLEAR     89  67  48 SE6       29.88S HX  92
MINERAL WELLS  CLEAR     87  69  54 SE10      29.90S HX  91
STEPHENVILLE   CLEAR     86  68  54 SE7G17    29.96R HX  90
COMANCHE       CLEAR     87  68  52 S10G16    29.94R HX  90
BROWNWOOD      PTCLDY    90  64  43 S9        29.93S HX  91
COLEMAN        PTCLDY    87  65  47 S13       29.94S
BRADY          CLEAR     86  66  51 N10       29.96R
$$

TXZ143>147-156>162-174-175-060200-
CENTRAL TEXAS

CITY           SKY/WX    TMP DP  RH WIND       PRES   REMARKS
WACO           PTCLDY    88  69  53 S18       29.93S HX  92
WACO-TSTC      CLEAR     70  72 100 S14       29.94R
WACO-MCGREGOR  CLEAR     88  68  51 S13       29.94R HX  91
HILLSBORO      CLEAR     87  68  53 SE12      29.95R HX  90
CORSICANA      CLEAR     88  71  57 S14G21    29.97R HX  94
MEXIA          CLEAR     85  73  67 SE17      29.96R HX  92
HEARNE         CLEAR     86  73  63 SE9       29.97R HX  93
CAMERON        CLEAR     87  73  62 S8        29.95R HX  93
TEMPLE         CLEAR     86  68  54 S16       29.94R
KILLEEN        CLEAR     85  71  63 S14       29.94S HX  90
KILLEEN-SKYLRK CLEAR     88  70  55 S13G18    29.94R HX  92
FORT HOOD      CLEAR     86  70  59 S14       29.94R HX  91
GATESVILLE     CLEAR     88  70  55 S13G18    29.96R HX  92
HAMILTON       PTCLDY    85  68  56 S14       29.95S
LAMPASAS       PTCLDY    88  74  63 S10G20    29.95  HX  97
$$

TXZ095>097-106>112-122>126-135>138-148>153-164>167-060200-
EAST TEXAS

CITY           SKY/WX    TMP DP  RH WIND       PRES   REMARKS
PARIS          CLEAR     86  72  62 S7        29.97R HX  92
SULPHUR SPRNGS CLEAR     88  72  57 S7        29.99R HX  94
MOUNT PLEASANT PTCLDY    86  72  62 SE6       30.00R HX  92
GILMER         MOCLDY    86  72  62 SE5       30.00R HX  93
MINEOLA        PTCLDY    88  73  62 SE3       29.99R HX  96
TYLER          CLEAR     88  71  57 S8        29.99R HX  94
LONGVIEW       MOCLDY    91  73  55 S7        30.00R HX  99
MARSHALL       CLOUDY    89  79  73 E14       30.04R HX 104
ATHENS         CLEAR     86  70  58 SE5       29.96S HX  90
PALESTINE      CLEAR     87  72  60 SE3       29.99R HX  94
JACKSONVILLE   CLEAR     86  71  59 SE3       30.04R HX  91
HENDERSON      MOCLDY    85  73  65 S3        30.02R HX  92
CENTER         FAIR      84  74  73 E9        30.03R HX  91
NACOGDOCHES    MOCLDY   N/A N/A N/A SE5       30.01R
LUFKIN         MOCLDY    84  75  74 SE10      30.01R HX  92
$$

SUPPLEMENTAL OBSERVATIONS (CENTRAL)

CITY           SKY/WX    TMP DP  RH WIND       PRES   REMARKS
CADDO GRASSLND   N/A     86  68  54 S6          N/A
PAT MAYSE LAKE   N/A     86  72  62 SE9         N/A  HX  92
GREENVILLE       N/A     86  68  54 S3          N/A
CEDAR HILL       N/A     88  70  55 SE9G18      N/A  HX  92
MCGREGOR         N/A     86  70  58 S12G22      N/A  HX  90
TEMPLE           N/A     86  70  58 S14         N/A  HX  90
$$

SUPPLEMENTAL OBSERVATIONS (WEST)

CITY           SKY/WX    TMP DP  RH WIND       PRES   REMARKS
MILLERS CREEK    N/A     90  66  45 S14         N/A  HX  92
POSSUM KINGDOM   N/A     90  63  40 S8G17       N/A  HX  90
LBJ GRASSLAND    N/A     86  66  51 SE8         N/A
GRANBURY         N/A     90  70  51 S13G22      N/A  HX  95
HAMBY            N/A     90  63  40 S12G21      N/A  HX  90
IVIE RESERVOIR   N/A     90  63  40 S12         N/A  HX  90
COLORADO BEND    N/A     86  68  54 SW13G23     N/A
$$

SUPPLEMENTAL OBSERVATIONS (EAST)

CITY           SKY/WX    TMP DP  RH WIND       PRES   REMARKS
TEXARKANA        N/A     75  68  78 SE8G16      N/A
LINDEN           N/A     77  70  78 E8G18       N/A
GILMER           N/A     88  72  58 S5          N/A  HX  94
HENDERSON        N/A     86  72  62 S5          N/A  HX  92
LUFKIN           N/A     88  75  66 MISG        N/A  HX  97
N SABINE NF      N/A     82  79  89 MISG        N/A  HX  93
S SABINE NF      N/A     84  77  79 CALM        N/A  HX  94
$$

SUPPLEMENTAL OBSERVATIONS ARE A COLLECTION OF AUTOMATED INSTRUMENTS
THAT ARE MAINTAINED BY A VARIETY OF FEDERAL AND STATE AGENCIES.
CERTAIN ELEMENTS...SUCH AS HUMIDITY VALUES AND SUSTAINED WIND
SPEEDS...MAY BE APPROXIMATED.



USA.gov is the U.S. government's official web portal to all federal, state and local government web resources and services.